Preview of NWS' New Version of Forecast
This preview is not operational and should not be used for support decisions.
Latest weather observations around

College Park Airport (KCGS)

Using English Units (Switch to International System of Units)
Date/ Time (EST) Wind (mph) Vis. (mi) Weather Sky Cond. Temp (°F) Rel. Humidity Wind Chill (°F) Heat Index (°F) Pressure Precip. (in)
Air Dwpt 6 hour Altimeter (inHg) Sea level (inHg) 1 hr 3 hr 6 hr
Max Min
Notice The following observation data may not be complete
Feb 25 09:58   10 Mostly Cloudy SCT005 BKN095          %              
Feb 25 09:38 Calm 10 Cloudy SCT003 SCT033 OVC085 47 45     93%     29.99        
Feb 25 09:18 Calm 7 Mostly Cloudy SCT080 BKN085 47 45     95%     30.01        
Feb 25 08:58 Calm 4 Cloudy SCT006 BKN013 OVC070 46 45     97%     30.01        
Feb 25 08:38 NW 6 5 Cloudy OVC004 46 45     99% 43   30.04        
Feb 25 08:18 Calm 1.25 Cloudy OVC002 45 45     99%     29.99        
Feb 25 07:58 Calm 1 Cloudy OVC002 45 45     99%     29.97        
Feb 25 07:38 Calm 1 Cloudy OVC002 45 45     99%     29.97        
Feb 25 07:18 Calm 1.25 Cloudy OVC002 45 45     98%     29.97        
Feb 25 06:58 Calm 1 Cloudy OVC002 45 45     97%     29.97        
Feb 25 06:38 E 3 1 Cloudy OVC002 45 45     97% 44   29.97        
Feb 25 06:18 E 5 1.25 Cloudy OVC002 45 45     97% 43   29.98        
Feb 25 05:58 Calm 1.75 Cloudy OVC002 45 45     97%     29.99        
Feb 25 05:38 Calm 1.75 Cloudy OVC004 45 45     97%     29.99        
Feb 25 04:58 Calm 1.75 Cloudy OVC004 45 45     97%     30        
Feb 25 04:38 Calm 2 Cloudy OVC004 46 45     97%     30.02        
Feb 25 04:18 Calm 2.5 Cloudy OVC004 46 45     97%     30.03        
Feb 25 03:38 Calm 2.5 Cloudy OVC006 46 45     95%     30.03        
Feb 25 03:18 ENE 3 3 Cloudy OVC008 46 45     94% 45   30.04        
Feb 25 02:58 Calm 5 Cloudy OVC008 47 45     93%     30.04        
Feb 25 02:38 Calm 5 Cloudy OVC008 47 45     93%     30.05        
Feb 25 02:18 Calm 5 Cloudy OVC010 46 45     93%     30.05        
Feb 25 01:58 Calm 5 Cloudy OVC010 47 45     93%     30.07        
Feb 25 01:38 Calm 5 Cloudy OVC008 47 45     93%     30.08        
Feb 25 01:18 Calm 5 Cloudy BKN010 OVC019 47 45     94%     30.09        
Feb 25 00:58 E 5 4 Cloudy SCT009 OVC019 47 45     93% 45   30.09        
Feb 25 00:38 ENE 3 5 Cloudy SCT007 OVC019 47 45     93% 46   30.1        
Feb 25 00:18 Calm 5 Cloudy SCT007 BKN017 OVC031 47 45     93%     30.11        
Feb 24 23:58 Calm 4 Cloudy BKN017 BKN026 OVC033 47 45     93%     30.12        
Feb 24 23:38 Calm 7 Cloudy OVC019 47 45     91%     30.12        
Feb 24 23:18 NE 3 7 Cloudy OVC019 47 45     91% 46   30.12        
Feb 24 22:58 Calm 5 Cloudy OVC019 47 45     91%     30.13        
Feb 24 22:38 Calm 7 Cloudy OVC017 47 45     91%     30.15        
Feb 24 22:18 Calm 4 Cloudy OVC015 48 45     89%     30.15        
Feb 24 21:58 NNE 5 7 Cloudy OVC017 48 45     88% 46   30.15        
Feb 24 21:18 NE 3 7 Cloudy OVC019 48 45     88% 47   30.15        
Feb 24 20:58 Calm 7 Cloudy OVC019 48 45     88%     30.15        
Feb 24 20:38 ENE 3 7 Cloudy OVC021 48 45     87% 47   30.15        
Feb 24 20:18 NNE 3 10 Cloudy OVC021 49 45     86% 48   30.15        
Feb 24 19:58 NE 3 10 Cloudy OVC023 48 45     87% 48   30.14        
Feb 24 19:38 NE 3 10 Cloudy OVC023 49 45     86% 48   30.16        
Feb 24 19:18 NNE 3 10 Cloudy BKN012 OVC023 49 45     86% 48   30.16        
Feb 24 18:58 ENE 3 10 Cloudy BKN012 OVC022 49 45     85% 48   30.16        
Feb 24 18:38 ENE 5 10 Cloudy SCT012 OVC022 49 45     86% 47   30.14        
Feb 24 18:18 NNE 5 10 Cloudy OVC022 49 45     87% 47   30.13        
Feb 24 17:58 NNE 6 10 Cloudy SCT013 OVC022 49 45     87% 47   30.13        
Feb 24 17:38 NE 6 10 Cloudy SCT011 OVC022 49 46     88% 47   30.13        
Feb 24 17:18 NE 3 7 Cloudy SCT013 OVC022 49 46     89% 49   30.12        
Feb 24 16:58 NE 5 7 Cloudy OVC020 50 47     89% 48   30.11        
Feb 24 16:38 ENE 3 10 Cloudy SCT012 OVC020 50 47     88% 49   30.12        
Feb 24 16:18 NNE 3 7 Cloudy SCT009 OVC015 50 47     90%     30.12        
Feb 24 15:58 NE 3 7 Cloudy BKN011 BKN014 OVC021 50 47     90%     30.13        
Feb 24 15:38 Calm 5 Cloudy BKN011 OVC014 50 48     92%     30.13        
Feb 24 15:18 Calm 5 Cloudy OVC011 50 48     92%     30.13        
Feb 24 14:58 Calm 5 Cloudy OVC011 50 48     93%     30.12        
Feb 24 14:38 ENE 3 5 Cloudy OVC011 50 48     93% 49   30.12        
Feb 24 14:18 NNE 7 5 Cloudy OVC009 50 48     93% 47   30.13        
Feb 24 13:38 Calm 5 Cloudy OVC005 49 48     95%     30.14        
Feb 24 13:18 NE 3 5 Cloudy OVC005 49 48     95% 49   30.14        
Feb 24 12:58 N 3 5 Cloudy OVC005 49 48     96% 49   30.15        
Feb 24 12:38 N 6 5 Cloudy OVC005 49 48     97% 47   30.13        
Feb 24 12:18 NNE 5 5 Cloudy OVC005 49 48     97% 47   30.13        
Feb 24 11:58 NE 3 5 Cloudy OVC003 49 48     97% 48   30.16        
Feb 24 11:38 NE 3 4 Cloudy OVC003 49 48     99% 48   30.16        
Feb 24 11:18 NE 6 3 Cloudy OVC003 49 48     99% 46   30.16        
Feb 24 10:58 NNE 5 2 Cloudy OVC003 48 48     99% 47   30.16        
Feb 24 10:38 NNE 5 3 Cloudy OVC003 48 48     99% 46   30.17        
Feb 24 10:18 N 3 2.5 Cloudy OVC003 48 48     100% 47   30.17        
Feb 24 09:58 Calm 3 Cloudy OVC003 48 48     100%     30.18        
Feb 24 09:38 Calm 3 Cloudy OVC003 48 48     99%     30.17        
Feb 24 09:18 Calm 1.75 Cloudy OVC001 48 48     99%     30.17        
Feb 24 08:58 Calm 1.5 Cloudy OVC001 48 47     99%     30.18        
Feb 24 08:38 Calm 0.5 Cloudy OVC001 48 47     99%     30.17        
Feb 24 08:18 Calm 0.25 Cloudy OVC001 48 47     99%     30.18        
Feb 24 07:58 Calm 0.25 Cloudy OVC001 48 47     99%     30.17        
Feb 24 07:38 Calm 0.25 Cloudy OVC001 47 47     99%     30.17        
Feb 24 07:18 Calm 0.25 Cloudy OVC001 47 47     99%     30.17        
Feb 24 06:58 Calm 0.25 Cloudy OVC001 47 47     99%     30.15        
Feb 24 06:38 Calm 0.5 Cloudy OVC001 47 47     99%     30.15        
Feb 24 06:18 Calm 0.25 Cloudy OVC001 47 47     99%     30.15        
Feb 24 05:58 Calm 0.25 Cloudy OVC001 47 47     99%     30.18        
Feb 24 05:38 Calm 0.25 Cloudy OVC001 47 47     99%     30.17        
Feb 24 05:18 Calm 0.25 Cloudy OVC001 47 47     99%     30.17        
Feb 24 04:58 Calm 0.25 Cloudy OVC001 47 47     98%     30.16        
Feb 24 04:38 Calm 0.25 Cloudy OVC001 47 47     98%     30.16        
Feb 24 04:18 Calm 0.5 Cloudy OVC001 47 47     98%     30.17        
Feb 24 03:58 Calm 0.25 Cloudy OVC001 47 47     99%     30.16        
Feb 24 03:38 Calm 0.5 Cloudy OVC001 47 47     99%     30.18        
Feb 24 03:18 Calm 0.5 Cloudy OVC001 47 47     99%     30.18        
Feb 24 02:58 Calm 0.5 Cloudy OVC001 47 47     99%     30.19        
Feb 24 02:38 Calm 0.75 Cloudy OVC003 47 46     99%     30.2        
Feb 24 02:18 Calm 1.5 Cloudy OVC003 47 46     98%     30.21        
Feb 24 01:58 Calm 2.5 Cloudy OVC003 47 46     98%     30.22        
Feb 24 01:38 Calm 3 Cloudy OVC003 47 46     98%     30.23        
Feb 24 01:18 Calm 3 Cloudy OVC003 47 46     97%     30.24        
Feb 24 00:58 Calm 2 Cloudy OVC003 46 46     98%     30.22        
Feb 24 00:38 Calm 2 Cloudy OVC003 46 45     97%     30.23        
Feb 24 00:18 Calm 2.5 Cloudy OVC003 46 45     99%     30.24        
Feb 23 23:58 Calm 2 Cloudy OVC003 46 45     99%     30.24        
Feb 23 23:38 Calm 2 Cloudy OVC003 46 45     98%     30.25        
Feb 23 23:18 Calm 1.75 Cloudy OVC003 45 45     98%     30.25        
Feb 23 22:58 Calm 1.75 Cloudy OVC003 45 45     97%     30.26        
Feb 23 22:38 Calm 1.75 Cloudy OVC003 45 45     98%     30.27        
Feb 23 22:18 Calm 1.75 Cloudy OVC003 45 45     98%     30.28        
Feb 23 21:58 Calm 1.75 Cloudy OVC003 45 44     97%     30.28        
Feb 23 21:38 Calm 2.5 Cloudy OVC003 45 44     97%     30.29        
Feb 23 21:18 Calm 2.5 Cloudy OVC003 45 44     97%     30.29        
Feb 23 20:58 Calm 3 Cloudy BKN005 OVC008 45 44     96%     30.3        
Feb 23 20:38 S 5 4 Cloudy OVC005 45 44     95% 43   30.3        
Feb 23 20:18 Calm 4 Cloudy BKN006 OVC009 45 44     95%     30.32        
Feb 23 19:58 Calm 5 Cloudy OVC006 45 44     94%     30.31        
Feb 23 19:38 Calm 7 Cloudy OVC006 45 43     94%     30.32        
Feb 23 19:18 Calm 7 Cloudy OVC006 45 43     95%     30.32        
Feb 23 18:58 Calm 5 Cloudy OVC008 45 43     94%     30.32        
Feb 23 18:38 Calm 7 Cloudy OVC008 45 43     93%     30.33        
Feb 23 18:18 Calm 10 Cloudy OVC008 45 42     90%     30.33        
Feb 23 17:58 Calm 10 Cloudy OVC010 45 42     90%     30.35        
Feb 23 17:38 Calm 10 Cloudy OVC010 45 42     90%     30.35        
Feb 23 17:18 Calm 10 Cloudy OVC010 45 42     87%     30.35        
Feb 23 16:58 Calm 10 Cloudy OVC010 45 42     87%     30.35        
Feb 23 16:38 Calm 10 Cloudy OVC010 45 41     85%     30.36        
Feb 23 16:18 Calm 10 Cloudy OVC010 45 41     87%     30.35        
Feb 23 15:58 SE 5 10 Cloudy OVC010 45 41     87% 42   30.37        
Feb 23 15:38 Calm 10 Cloudy OVC010 45 41     87%     30.37        
Feb 23 15:18 S 3 10 Cloudy OVC010 45 41     86% 43   30.38        
Feb 23 14:58 SE 5 10 Cloudy OVC010 44 40     86% 42   30.4        
Feb 23 14:38 SSE 3 10 Cloudy OVC010 44 40     87% 42   30.41        
Feb 23 13:58 ESE 7 10 Cloudy OVC010 44 40     87% 40   30.41        
Feb 23 13:38 SSE 5 10 Cloudy OVC010 44 41     91% 41   30.44        
Feb 23 13:18 ESE 3 5 Cloudy BKN008 OVC012 42 40     91% 41   30.46        
Feb 23 12:58 Calm 4 Cloudy BKN006 OVC012 42 40     93%     30.48        
Feb 23 12:38 Calm 2.5 Cloudy BKN008 OVC012 42 40     93%     30.5        
Feb 23 12:18 Calm 2.5 Cloudy OVC008 42 40     93%     30.51        
Feb 23 11:58 Calm 2.5 Cloudy BKN006 OVC013 41 40     93%     30.52        
Feb 23 11:38 Calm 2 Cloudy OVC006 41 39     93%     30.53        
Feb 23 11:18 SE 3 4 Cloudy OVC007 41 39     92% 39   30.53        
Feb 23 10:58 Calm 5 Cloudy SCT007 OVC012 40 38     92%     30.55        
Feb 23 10:38 Calm 4 Cloudy OVC010 40 38     92%     30.56        
Feb 23 10:18 Calm 5 Cloudy OVC008 40 38     92%     30.56        
Feb 23 09:58 Calm 5 Cloudy OVC008 40 38     93%     30.57        
Feb 23 09:38 Calm 4 Cloudy OVC008 40 38     93%     30.58        
Feb 23 09:18 E 3 5 Cloudy OVC010 40 38     93% 37   30.58        
Feb 23 08:58 Calm 7 Cloudy OVC010 39 38     93%     30.58        
Feb 23 08:38 Calm 5 Cloudy BKN008 OVC015 39 38     94%     30.58        
Feb 23 08:18 Calm 3 Cloudy BKN008 OVC013 39 37     95%     30.59        
Feb 23 07:58 Calm 3 Cloudy BKN008 OVC013 39 37     95%     30.6        
Feb 23 07:38 Calm 5 Cloudy SCT008 OVC013 39 37     93%     30.6        
Feb 23 07:18 Calm 5 Cloudy BKN007 OVC011 38 37     95%     30.59        
Feb 23 06:58 E 3 4 Cloudy SCT005 BKN011 OVC017 38 37     95% 36   30.57        
Feb 23 06:38 Calm 4 Cloudy BKN008 OVC018 38 37     95%     30.57        
Feb 23 06:18 ENE 5 3 Cloudy OVC006 38 37     95% 35   30.58        
Feb 23 05:58 Calm 3 Cloudy OVC006 39 37     95%     30.59        
Feb 23 05:38 ENE 3 3 Cloudy OVC008 39 37     95% 37   30.58        
Feb 23 05:18 E 3 3 Cloudy BKN007 OVC013 39 37     95% 37   30.58        
Feb 23 04:58 Calm 3 Cloudy BKN007 OVC013 39 37     93%     30.58        
Feb 23 04:38 NE 5 4 Cloudy OVC009 39 37     93% 36   30.58        
Feb 23 04:18 Calm 4 Cloudy BKN008 OVC015 39 37     93%     30.59        
Feb 23 03:58 NNE 3 4 Cloudy OVC008 39 37     93% 37   30.6        
Feb 23 03:38 NE 3 5 Cloudy BKN008 OVC014 39 37     93% 37   30.59        
Feb 23 03:18 Calm 10 Cloudy BKN008 OVC014 40 37     92%     30.59        
Feb 23 02:58 Calm 5 Cloudy BKN008 OVC012 40 38     93%     30.6        
Feb 23 02:38 NNE 3 7 Cloudy OVC012 40 37     89% 37   30.6        
Feb 23 02:18 Calm 10 Cloudy SCT011 OVC017 40 36     87%     30.59        
Feb 23 01:58 ENE 3 10 Cloudy SCT010 BKN016 OVC023 40 36     87% 38   30.6        
Feb 23 01:38 ENE 5 10 Cloudy SCT013 OVC021 40 36     87% 37   30.61        
Feb 23 01:18 Calm 5 Cloudy SCT012 OVC019 40 37     88%     30.61        
Feb 23 00:58 Calm 7 Cloudy BKN012 OVC021 40 36     86%     30.61        
Feb 23 00:38 Calm 10 Cloudy OVC012 40 36     85%     30.61        
Feb 23 00:18 ENE 6 10 Cloudy OVC012 40 36     84% 36   30.6        
Feb 22 23:58 ENE 5 10 Cloudy OVC012 41 36     84% 37   30.6        
Feb 22 23:38 E 9 10 Cloudy OVC014 41 36     84% 35   30.61        
Feb 22 23:18 ENE 5 10 Cloudy OVC014 41 36     83% 37   30.61        
Feb 22 22:58 ENE 7 10 Cloudy OVC014 41 36     84% 36   30.61        
Feb 22 22:38 ENE 7 10 Cloudy OVC014 41 36     84% 36   30.62        
Feb 22 22:18 ENE 5 10 Cloudy OVC014 41 37     84% 38   30.61        
Feb 22 21:58 NE 6 10 Cloudy OVC014 41 37     85% 37   30.61        
Feb 22 21:38 ENE 6 10 Cloudy OVC014 41 38     88% 37   30.6        
Feb 22 21:18 ENE 3 10 Cloudy OVC012 41 38     87% 40   30.6        
Feb 22 20:58 NE 3 10 Cloudy OVC012 42 38     85% 40   30.59        
Feb 22 20:38 ENE 6 10 Cloudy OVC012 42 38     86% 38   30.59        
Feb 22 20:18 NE 7 10 Cloudy OVC012 42 38     87% 37   30.58        
Feb 22 19:58 ENE 3 10 Cloudy OVC012 42 39     88% 40   30.58        
Feb 22 19:38 ENE 10 10 Cloudy OVC012 42 39     88% 36   30.56        
Feb 22 19:18 ENE 5 10 Cloudy SCT007 OVC012 43 39     88% 40   30.57        
Feb 22 18:58 NE 9 10 Cloudy BKN010 OVC014 44 41     90% 39   30.55        
Feb 22 18:38 ENE 8 10 Cloudy BKN010 OVC015 45 42     90% 40   30.55        
Feb 22 18:18 NE 6 10 Cloudy SCT008 BKN016 OVC021 45 43     91% 42   30.54        
Feb 22 17:58 NE 6 7 Cloudy SCT009 BKN019 OVC033 45 43     92% 42   30.53        
Feb 22 17:38 NE 8 3 Cloudy SCT008 SCT013 OVC019 46 44     91% 42   30.54        
Feb 22 17:18 NE 6 5 Cloudy BKN006 BKN012 OVC021 46 45     93% 43   30.53        
Feb 22 16:58 NNE 7 3 Cloudy BKN006 OVC014 47 45     93% 44   30.53        
Feb 22 16:38 NNE 3 2 Cloudy BKN008 OVC013 47 45     93% 46   30.51        
Feb 22 16:18 NNE 7 5 Cloudy SCT008 BKN013 OVC024 48 45     92% 44   30.5        
Feb 22 15:58 NE 7 3 Cloudy SCT008 BKN013 OVC026 48 46     93% 44   30.48        
Feb 22 15:38 NE 5 2.5 Cloudy SCT013 OVC020 48 46     90% 47   30.47        
Feb 22 15:18 NE 6 5 Cloudy OVC017 49 45     83% 47   30.47        
Feb 22 14:58 N 9 10 Cloudy OVC017 51 44     77%     30.47        
Feb 22 14:38 N 6 10 Cloudy OVC019 51 44     76%     30.45        
Feb 22 14:18 ENE 3 10 Cloudy OVC021 51 43     73%     30.43        
Feb 22 13:58 E 9 10 Cloudy OVC021 52 43     72%     30.42        
Feb 22 13:38 E 9 10 Cloudy OVC021 52 42     69%     30.43        
Feb 22 13:18 E 7 10 Cloudy OVC021 52 42     69%     30.45        
Feb 22 12:58 ENE 5 10 Cloudy OVC021 52 42     68%     30.46        
Feb 22 12:38 E 6 10 Cloudy OVC025 52 42     68%     30.46        
Feb 22 12:18 NE 3 10 Cloudy OVC027 52 41     67%     30.48        
Feb 22 11:58 ENE 7 10 Cloudy OVC027 52 41     67%     30.48        
Feb 22 11:38 ENE 5 10 Cloudy OVC027 52 42     69%     30.49        
Feb 22 11:18 NE 3 10 Cloudy OVC029 53 42     66%     30.51        
Feb 22 10:58 Calm 10 Cloudy OVC027 53 42     67%     30.5        
Feb 22 10:38 NE 7 10 Cloudy OVC027 53 41     63%     30.48        
Feb 22 10:18 E 7 10 Cloudy OVC027 53 40     62%     30.49        
Feb 22 09:58 NE 3 10 Cloudy OVC027 54 38     56%     30.49        
Feb 22 09:38 NE 7 10 Cloudy OVC027 53 36     52%     30.48        
Feb 22 09:18 ENE 7 10 Cloudy OVC025 53 36     52%     30.49        
Feb 22 08:58 ENE 8 10 Cloudy OVC025 53 35     51%     30.48        
Notice The following observation data may not be complete
Jun 12 06:33   10 Mostly Cloudy BKN080          %              
Jun 12 03:33 Calm 10 Clear CLR 68 65     91%     30.05        
Notice The following observation data may not be complete
Jun 12 02:33 Calm 10 Clear CLR   67      %     30.05        
Jun 11 22:53 Calm 10 Clear CLR 75 65     72%   76 30.07        
Notice The following observation data may not be complete
Jun 11 21:13   10 Clear CLR          %              
Jun 11 06:13 Calm 10 Clear CLR 64 62     91%     30.1        
Notice The following observation data may not be complete
Jun 11 02:13   10 Clear CLR          %              
Notice The following observation data may not be complete
Jun 11 01:33 Calm 10 Clear CLR   61      %     30.07        
Jun 11 01:13 Calm 10 Clear CLR 69 61     77%     30.07        
Notice The following observation data may not be complete
Jun 11 00:13 Calm 10 Clear CLR   61      %     30.07        
Jun 10 22:33 Calm 10 Clear CLR 71 62     71%   72 30.07        
Notice The following observation data may not be complete
Jun 10 12:33   10 Clear CLR          %              
Jun 10 11:33 S 3 10 Clear CLR 82 53     36%   81 30.05        
Jun 10 09:33 Calm 10 Clear CLR 74 59     59%   74 30.04        
Notice The following observation data may not be complete
Jun 10 04:33 Calm 10 Clear CLR   56      %     29.98        
Jun 09 21:33 Calm 10 Clear CLR 67 54     62%     29.92        
Jun 09 17:33 WSW 5 10 Partly Cloudy SCT075 80 51     35%   80 29.84        
Jun 09 13:53 WNW 9 10 Partly Cloudy SCT065 SCT080 79 52     39%   78 29.85        
Notice The following observation data may not be complete
Jun 09 13:33   10 Mostly Cloudy BKN065          %              
Jun 09 12:53 WNW 9 10 Partly Cloudy SCT060 SCT070 77 52     41%   77 29.86        
Jun 09 09:53 WNW 9 10 Clear CLR 71 54     55%   70 29.85        
Notice The following observation data may not be complete
Jun 09 07:33   10 Clear CLR          %              
Jun 09 00:53 Calm 10 Clear CLR 54 51     90%     29.83        
Jun 08 15:53 N 5 10 Mostly Cloudy BKN075 72 47     42%   71 29.9        
Jun 08 14:53 NNE 7 10 Clear CLR 71 44     38%   70 29.92        
Jun 08 12:53 NE 8 10 Clear CLR 68 49     50%     29.96        
Jun 08 01:53 Calm 10 Clear CLR 51 50     97%     30.04        
Jun 07 22:53 Calm 10 Clear CLR 54 52     93%     30.05        
Jun 07 22:13 Calm 10 Clear CLR 54 52     92%     30.04        
Jun 07 11:53 NE 3 10 Cloudy SCT016 BKN023 OVC070 62 54     76%     29.99        
Jun 07 11:33 E 8 10 Cloudy BKN018 BKN023 OVC060 62 54     75%     29.98        
Jun 06 11:13 NW 9 10 Partly Cloudy SCT047 72 53     51%   71 29.76        
Notice The following observation data may not be complete
Jun 06 10:33   10 Clear CLR          %              
Jun 06 08:13 NNW 11 10 Partly Cloudy SCT025 69 59     71%     29.74        
Jun 06 07:13 NNW 6 10 Clear CLR 66 59     78%     29.72        
Notice The following observation data may not be complete
Jun 06 03:33   2.5 Mostly Cloudy BKN048          %              
Jun 06 00:13 Calm 3 Partly Cloudy SCT065 64 64     98%     29.68        
Notice The following observation data may not be complete
Jun 05 23:33   7 Clear CLR          %